Wind_Speed
6 4 4 3 4 7 3 2 3 4 1 1 0 4 6 3 4 2 2 2 3 1 4 7 6 7 8 9 8 6 6 5 6 6 5 7 5 5 5 4 4 4 4
5 4 1 2 3 3 4 4 2 3 4 4 5 1 5 3 4 1 1 2 3 4 1 5 7 6 6 9 7 8 6 6 5 6 7 8 7 8 7 6 6 6 5
7 5 4 3 5 5 6 4 4 5 3 2 3 1 1 2 9 9 4 1 2 3 4 1 4 6 7 6 9 8 6 7 5 6 6 8 8 9 8 8 7 7 8
9 8 5 6 7 5 7 6 4 4 2 2 2 2 3 3 2 7 3 2 1 1 5 5 3 1 4 6 9 8 9 9 9 8 7 6 8 10 10 9 9 9 10
13 10 6 6 5 6 6 5 5 3 3 3 5 5 3 0 2 4 4 2 1 1 1 2 4 3 2 2 5 6 9 11 11 11 12 11 10 10 10 10 9 9 10
15 11 10 7 6 7 6 5 6 5 4 6 8 4 5 2 4 2 2 5 3 1 0 3 2 4 4 4 3 4 5 8 10 12 12 14 14 14 14 14 13 13 13
11 11 11 9 9 9 9 8 5 5 6 7 4 5 6 3 5 2 1 4 5 2 1 2 3 2 2 2 3 3 4 4 6 8 10 12 12 13 15 16 16 15 16
13 10 12 11 10 11 11 9 8 7 9 8 5 8 8 5 7 6 4 2 6 8 7 6 1 2 2 3 4 4 4 3 3 4 5 7 8 10 11 13 14 14 15
16 12 12 12 11 12 10 10 9 7 5 9 8 6 6 5 10 10 8 5 5 6 6 7 8 6 5 4 4 4 4 4 4 4 4 4 5 7 9 12 12 12 13
18 18 15 15 14 12 11 9 10 8 7 10 10 10 10 6 9 8 13 10 8 5 3 2 4 6 6 5 5 8 8 7 9 10 11 10 8 7 8 9 9 9 10
22 20 18 17 15 15 13 11 11 10 8 12 12 8 10 11 10 8 10 15 14 9 6 5 4 3 2 1 2 4 5 5 7 8 10 12 12 9 8 8 9 9 9
26 24 22 21 19 17 15 12 12 12 9 11 12 12 10 9 9 10 10 9 15 13 11 9 10 10 9 6 5 4 3 3 5 7 9 11 10 9 8 8 8 9 9
30 27 24 22 21 18 14 12 12 12 10 9 13 13 13 11 7 6 7 7 8 10 8 8 8 8 11 13 10 9 9 7 6 7 8 9 9 9 9 9 9 9 10
30 26 25 24 22 19 15 13 13 12 13 11 10 14 13 13 11 9 8 9 8 8 10 12 12 10 9 11 13 14 14 12 10 10 9 9 9 10 10 9 10 11 11
29 30 28 25 23 20 18 17 16 15 15 12 11 14 16 15 14 13 12 11 12 12 13 11 8 8 7 6 5 8 8 9 10 9 8 10 12 14 15 14 14 14 15
31 31 31 28 26 22 21 20 18 17 17 15 13 13 15 16 17 18 16 15 15 14 14 13 10 7 8 8 6 7 8 9 9 10 12 14 15 15 17 19 19 19 19
33 33 33 32 28 25 23 22 21 19 17 17 17 16 15 15 17 19 19 18 16 15 15 13 13 12 11 10 10 10 11 12 13 15 17 18 18 20 22 20 20 19 21
33 34 33 35 32 28 26 25 23 22 21 19 18 20 19 18 18 17 18 19 19 17 16 14 13 13 13 12 13 12 11 11 14 18 21 23 23 22 23 25 24 25 26
35 35 35 37 35 31 30 27 25 24 23 22 21 20 19 20 20 20 17 18 17 18 18 18 18 17 16 16 15 15 13 14 19 22 24 20 20 22 24 23 23 23 24
39 37 39 39 39 34 32 30 28 28 26 25 25 24 21 22 22 21 21 18 17 16 18 19 18 18 18 17 17 19 22 22 23 21 22 21 20 18 19 20 18 18 19
42 40 40 42 41 40 36 33 31 30 27 26 27 28 28 25 23 23 24 21 19 18 18 18 20 21 19 18 20 21 24 25 27 25 23 20 20 20 21 19 18 18 17
43 42 42 44 44 43 41 38 32 30 27 28 28 29 30 28 24 22 23 22 21 22 21 20 19 20 20 19 21 23 23 25 26 24 22 22 23 22 20 18 19 20 20
44 45 44 44 46 46 43 38 35 34 31 30 29 28 30 28 25 25 21 23 22 21 21 21 23 23 22 20 23 26 29 23 24 20 23 26 23 25 21 20 18 18 21
46 47 46 44 43 44 42 38 37 35 32 30 28 26 23 22 21 24 24 23 21 20 20 20 21 19 19 18 23 18 21 21 20 21 23 27 23 19 15 17 20 22 22
49 49 48 46 43 42 41 38 36 37 35 31 26 25 25 22 20 20 23 23 19 20 20 20 17 17 17 18 18 18 16 18 22 21 19 18 16 20 22 24 22 19 20
51 50 49 48 43 41 38 37 35 36 36 32 30 26 22 18 18 19 21 18 18 19 18 16 15 15 16 16 14 14 16 16 14 12 14 18 21 21 18 21 17 22 20
Wind_Direction
154 150 148 144 146 152 145 205 293 299 11 249 6 46 24 3 334 19 42 23 59 70 209 206 201 214 212 207 210 211 205 211 221 236 234 227 234 240 239 247 243 252 248
187 192 214 225 224 219 216 262 273 329 305 312 279 35 8 17 30 238 120 48 40 35 180 208 205 218 217 211 221 223 217 230 237 238 248 246 246 249 258 245 260 265 273
214 224 242 282 245 259 250 262 291 305 322 340 139 98 351 347 56 55 140 57 16 25 46 163 202 216 223 218 228 235 233 238 239 244 251 257 258 255 256 257 252 267 271
233 242 253 273 256 255 253 257 282 304 276 242 282 321 238 333 86 46 92 64 56 38 31 42 58 198 224 232 234 233 232 246 251 253 252 252 267 261 262 264 262 263 272
241 242 256 265 262 256 243 277 278 288 261 245 288 304 206 106 202 79 65 18 269 90 14 3 354 16 1 269 248 249 246 242 249 254 257 257 254 257 262 261 261 263 266
232 231 246 255 267 280 261 283 281 271 257 285 296 207 193 179 161 94 33 39 56 197 218 300 321 350 341 341 301 292 282 275 264 258 260 263 260 262 260 261 263 266 265
221 226 238 256 264 284 264 264 279 268 276 282 185 184 181 180 185 209 66 56 72 77 58 326 297 277 267 344 17 28 356 311 277 273 271 271 269 266 269 271 271 266 265
234 237 238 253 263 278 270 266 280 277 317 178 178 198 204 196 200 208 209 131 97 84 82 62 75 172 202 316 326 332 337 334 317 297 287 282 285 287 282 278 278 280 281
230 233 238 247 266 278 279 271 272 282 273 202 209 201 195 205 205 214 215 202 138 109 91 76 73 80 90 86 60 34 27 34 33 19 358 332 308 293 286 287 289 284 281
238 237 242 247 260 274 273 270 268 266 241 216 221 231 222 217 192 210 223 219 202 174 145 99 85 90 92 91 72 60 46 49 61 60 44 27 3 333 310 302 301 302 297
241 235 241 245 253 263 270 257 259 263 255 221 224 229 226 230 225 210 215 223 224 223 225 225 246 238 188 157 94 61 50 49 44 25 16 7 3 348 325 312 309 306 300
229 233 237 243 251 255 264 250 256 251 250 226 231 243 244 247 245 239 245 240 236 237 238 254 258 264 258 262 266 272 307 336 357 358 355 351 351 359 348 337 327 318 311
228 231 235 240 242 248 256 242 240 244 243 244 239 241 247 250 261 261 249 247 249 244 252 241 244 272 254 249 256 272 272 279 296 318 320 328 329 341 348 346 338 327 323
228 228 233 241 242 242 244 238 237 243 242 241 247 235 238 244 245 247 256 253 237 247 256 260 277 277 267 264 264 263 272 270 288 298 301 306 302 304 306 313 311 308 306
232 232 235 239 239 237 240 242 240 243 242 242 248 245 243 244 250 251 249 252 257 266 278 286 285 287 270 274 275 271 266 264 268 274 283 287 292 294 288 286 284 283 287
232 233 233 236 234 235 239 244 241 239 242 239 244 249 247 248 253 254 253 252 255 262 268 282 297 273 279 279 292 295 292 279 278 284 288 290 293 303 298 288 285 280 276
231 234 232 233 234 234 236 241 242 238 243 244 244 249 250 249 251 255 252 252 254 260 264 269 282 287 285 274 289 300 303 293 297 299 301 296 292 296 300 296 295 288 278
236 234 232 233 234 233 233 235 238 238 239 243 248 250 252 251 250 253 257 252 256 259 263 269 272 273 273 275 287 290 306 315 310 309 305 296 291 290 291 294 290 286 281
237 234 231 231 232 232 230 229 235 241 243 248 251 255 255 251 252 252 257 258 257 260 261 267 273 266 266 272 275 280 286 301 305 301 312 299 291 293 297 297 296 292 286
238 235 231 232 233 233 232 232 235 241 244 249 254 255 257 254 255 254 252 257 258 259 262 269 274 273 272 276 277 285 283 292 298 302 310 298 299 301 303 302 298 298 294
237 237 235 233 235 234 234 235 236 242 247 254 257 259 259 259 256 258 255 250 254 257 260 266 272 271 270 275 280 285 287 291 291 299 308 302 297 296 300 299 305 308 302
238 238 237 235 235 236 236 238 240 243 248 255 263 266 264 261 263 268 258 254 256 257 258 257 266 265 266 276 281 290 298 297 303 310 305 299 300 299 299 289 294 301 298
235 236 237 237 238 239 241 242 244 247 249 254 259 266 267 262 258 257 254 251 252 253 257 264 264 259 268 272 285 292 291 290 297 297 295 296 299 298 299 292 292 296 301
232 235 236 237 239 241 242 244 244 247 246 250 253 256 256 250 250 250 250 246 251 257 261 273 272 268 266 269 288 289 293 292 291 295 297 295 303 301 295 297 299 303 300
231 234 235 236 237 240 239 238 238 239 242 243 243 247 245 245 245 234 242 239 247 254 260 274 262 254 253 279 280 287 291 290 291 297 299 299 307 307 306 305 307 312 310
233 235 238 237 236 237 235 233 233 233 235 235 237 239 235 235 229 233 233 237 248 258 264 260 251 249 264 274 283 292 291 290 292 302 312 308 309 313 311 311 306 316 316
Height
1584 1585 1585 1585 1586 1586 1587 1587 1586 1586 1586 1585 1585 1585 1585 1585 1584 1584 1584 1584 1585 1585 1585 1587 1588 1589 1590 1591 1593 1594 1595 1596 1597 1598 1599 1600 1601 1602 1602 1603 1603 1603 1604
1584 1585 1585 1585 1585 1586 1586 1586 1586 1586 1585 1585 1585 1585 1586 1586 1585 1584 1585 1585 1585 1585 1586 1586 1587 1589 1590 1592 1593 1593 1595 1596 1597 1598 1599 1600 1601 1602 1602 1602 1603 1603 1603
1584 1584 1584 1585 1585 1584 1585 1586 1586 1585 1585 1585 1585 1586 1586 1586 1586 1585 1585 1586 1586 1587 1587 1587 1587 1589 1590 1591 1593 1594 1595 1595 1597 1597 1598 1599 1600 1600 1601 1601 1602 1602 1602
1583 1584 1583 1584 1584 1584 1584 1584 1584 1584 1585 1585 1586 1586 1586 1586 1586 1586 1586 1587 1588 1588 1588 1589 1588 1589 1590 1591 1592 1593 1595 1595 1596 1596 1597 1597 1598 1599 1600 1600 1600 1601 1601
1582 1583 1583 1583 1583 1583 1583 1583 1583 1584 1584 1585 1585 1586 1586 1586 1586 1587 1588 1588 1588 1589 1590 1590 1590 1590 1591 1591 1591 1592 1594 1593 1594 1595 1595 1595 1596 1597 1598 1598 1598 1598 1599
1580 1580 1581 1581 1582 1582 1583 1583 1583 1583 1584 1584 1584 1585 1586 1587 1587 1588 1588 1588 1589 1590 1591 1591 1591 1591 1592 1591 1591 1592 1592 1592 1592 1593 1594 1594 1595 1596 1596 1596 1596 1596 1597
1577 1578 1579 1580 1581 1581 1582 1582 1582 1582 1583 1583 1584 1585 1587 1587 1588 1588 1589 1589 1589 1590 1590 1590 1591 1591 1592 1592 1591 1591 1591 1591 1591 1592 1592 1593 1593 1593 1594 1593 1592 1594 1592
1574 1575 1576 1579 1580 1580 1580 1581 1581 1582 1581 1582 1583 1584 1586 1588 1588 1589 1590 1590 1591 1591 1590 1590 1590 1591 1592 1592 1592 1592 1591 1591 1590 1591 1591 1591 1591 1591 1591 1591 1592 1591 1588
1571 1573 1574 1576 1578 1579 1580 1580 1580 1581 1581 1582 1583 1584 1585 1587 1588 1589 1590 1591 1591 1591 1592 1592 1591 1591 1592 1592 1592 1592 1592 1591 1591 1591 1590 1590 1590 1590 1590 1590 1589 1588 1587
1568 1570 1572 1573 1575 1577 1578 1578 1579 1580 1580 1581 1582 1582 1583 1585 1586 1588 1590 1590 1591 1591 1592 1592 1592 1592 1593 1593 1593 1593 1593 1592 1592 1592 1591 1590 1589 1588 1588 1587 1586 1586 1586
1565 1567 1569 1571 1572 1574 1576 1576 1577 1578 1579 1580 1581 1582 1582 1583 1583 1584 1586 1588 1589 1590 1591 1592 1593 1593 1593 1593 1593 1593 1593 1593 1593 1592 1591 1590 1588 1587 1586 1585 1585 1585 1584
1561 1563 1565 1568 1570 1572 1573 1574 1575 1576 1578 1579 1580 1581 1582 1583 1583 1583 1584 1585 1586 1588 1589 1590 1591 1592 1592 1592 1593 1593 1593 1592 1593 1592 1591 1590 1588 1587 1586 1585 1584 1584 1583
1556 1559 1562 1564 1566 1568 1571 1571 1572 1574 1576 1577 1578 1580 1581 1582 1583 1583 1583 1584 1585 1586 1587 1587 1588 1589 1589 1589 1590 1591 1591 1591 1591 1590 1590 1589 1589 1587 1586 1585 1584 1583 1582
1551 1556 1559 1561 1563 1565 1567 1569 1570 1572 1573 1574 1576 1577 1579 1580 1580 1581 1582 1583 1584 1585 1585 1586 1586 1586 1586 1586 1587 1588 1588 1589 1589 1589 1588 1588 1587 1586 1585 1583 1582 1581 1581
1547 1551 1554 1556 1559 1561 1564 1565 1567 1569 1570 1571 1573 1574 1576 1577 1578 1578 1579 1580 1580 1581 1582 1583 1584 1585 1585 1585 1586 1586 1586 1586 1586 1585 1585 1584 1583 1583 1582 1580 1579 1578 1577
1541 1544 1548 1551 1554 1557 1559 1561 1564 1566 1567 1569 1570 1571 1572 1574 1575 1576 1577 1577 1578 1579 1579 1580 1581 1582 1583 1584 1584 1583 1583 1583 1583 1582 1581 1580 1579 1578 1576 1575 1574 1573 1572
1533 1537 1542 1546 1549 1552 1554 1557 1559 1562 1564 1566 1567 1568 1569 1570 1571 1572 1573 1574 1575 1576 1577 1578 1579 1580 1581 1581 1582 1581 1581 1580 1580 1578 1577 1576 1574 1573 1571 1569 1568 1567 1566
1527 1530 1535 1540 1543 1545 1548 1551 1554 1557 1559 1561 1563 1564 1566 1567 1567 1568 1569 1570 1572 1573 1574 1574 1575 1576 1577 1578 1578 1578 1577 1576 1574 1573 1572 1570 1569 1567 1566 1564 1562 1560 1559
1520 1523 1527 1531 1535 1538 1542 1545 1549 1551 1554 1557 1558 1559 1560 1562 1563 1564 1565 1566 1568 1569 1569 1569 1570 1571 1571 1572 1573 1573 1572 1571 1570 1569 1567 1565 1563 1562 1560 1558 1555 1553 1552
1511 1515 1518 1523 1528 1533 1536 1539 1541 1544 1549 1551 1553 1555 1557 1556 1557 1559 1561 1563 1563 1564 1564 1565 1565 1566 1567 1568 1567 1567 1567 1565 1564 1564 1562 1560 1558 1555 1554 1552 1551 1549 1547
1501 1506 1511 1515 1520 1524 1527 1530 1535 1537 1542 1544 1546 1549 1550 1552 1552 1554 1554 1556 1559 1559 1559 1560 1560 1561 1561 1561 1562 1560 1559 1559 1557 1556 1555 1555 1554 1552 1550 1548 1545 1544 1541
1493 1498 1502 1507 1511 1514 1518 1523 1528 1531 1535 1537 1539 1541 1542 1544 1545 1547 1548 1549 1552 1553 1551 1551 1551 1553 1555 1556 1556 1556 1555 1553 1550 1551 1549 1549 1548 1546 1545 1543 1540 1539 1537
1481 1486 1492 1497 1501 1506 1511 1516 1521 1523 1526 1528 1530 1532 1534 1535 1537 1539 1540 1541 1543 1546 1546 1548 1547 1548 1549 1550 1550 1549 1548 1547 1547 1545 1542 1541 1542 1539 1538 1536 1535 1534 1532
1470 1475 1481 1486 1492 1497 1502 1508 1511 1513 1516 1517 1519 1522 1524 1526 1528 1531 1532 1534 1536 1540 1541 1541 1540 1541 1541 1541 1542 1541 1541 1541 1540 1541 1539 1534 1535 1533 1532 1531 1529 1527 1525
1459 1464 1470 1476 1481 1486 1491 1496 1501 1502 1503 1506 1510 1512 1514 1516 1519 1522 1525 1527 1530 1533 1535 1535 1535 1536 1536 1536 1536 1535 1535 1535 1534 1534 1533 1531 1529 1527 1526 1524 1522 1520 1518
1449 1455 1459 1463 1470 1473 1478 1484 1490 1491 1492 1495 1498 1502 1503 1507 1512 1515 1518 1522 1527 1530 1531 1530 1530 1532 1532 1531 1530 1530 1529 1530 1531 1529 1529 1528 1525 1522 1518 1517 1516 1514 1512